Regional Weather Roundup
Issued by NWS

Home | Current Version | Previous Version | Text Only | Print | Product List | Glossary Off
Versions: 1 2 3 4 5 6 7 8 9 10 11 12 13 14 15 16 17 18 19 20 21 22 23 24 25 26 27 28 29 30 31 32 33 34 35 36 37 38 39 40 41 42 43 44 45 46 47 48 49 50

000
ASUS43 KIND 202209
RWRIN

WEATHER ROUNDUP FOR INDIANA
NATIONAL WEATHER SERVICE INDIANAPOLIS IN
600 PM EDT WED AUG 20 2014

NOTE: "FAIR" INDICATES FEW OR NO CLOUDS BELOW 12,000 FEET WITH NO
SIGNIFICANT WEATHER AND/OR OBSTRUCTIONS TO VISIBILITY.

* - STATION DOES NOT REPORT WEATHER SUCH AS PRECIPITATION OR FOG.

+ - STATION NOT QUALITY CONTROLLED BY THE NATIONAL WEATHER SERVICE.
    USE DATA WITH CAUTION...ESPECIALLY DEWPOINT AND RELATIVE
    HUMIDITY OBSERVATIONS.

INZ001>003-010>013-019-020-202300-
NORTHWEST INDIANA

CITY           SKY/WX    TMP DP  RH WIND       PRES   REMARKS
GARY /AIRPORT/ MOSUNNY   86  63  45 SW9       29.87S
KNOX *+        SUNNY     84  64  50 W6        29.87F
LA PORTE +     SUNNY     82  63  52 SW7       29.89S
MICHIGAN CITY+ SUNNY     82  63  51 SW8       29.88S
MONTICELLO +   MOSUNNY   81  70  68 SW9       29.89S
RENSSELAER +   MOSUNNY   81  72  74 SW10      29.90S
VALPARAISO     SUNNY     84  64  50 SW10      29.89F

$$

LMZ046-743>745-202300-
SOUTHERN LAKE MICHIGAN

STATION/POSITION TIME  TEMP WIND        PRES
                       AIR  DIR/SP/G
                 (UTC) (F)  (DEG/KT/KT) (MB)
BURNS HARBOR     2100   83  250/ 13/ 16   N/A
MICHIGAN CITY    2200   79  220/  3/  5   N/A

$$

INZ004-005-014>016-021>024-202300-
NORTH CENTRAL INDIANA

CITY           SKY/WX    TMP DP  RH WIND       PRES   REMARKS
GOSHEN         SUNNY     86  65  49 W12       29.89F
LOGANSPORT +   SUNNY     82  64  54 SW9       29.90F
PERU/GRISSOM   SUNNY     84  71  66 VRB2      29.89F
ROCHESTER +    SUNNY     86  64  48 SW7       29.89F
SOUTH BEND     SUNNY     85  63  47 W6        29.89F
WARSAW +       MOSUNNY   82  64  54 W10       29.90F

$$

INZ006>009-017-018-025>027-202300-
NORTHEAST INDIANA

CITY           SKY/WX    TMP DP  RH WIND       PRES   REMARKS
ANGOLA *+      PTSUNNY   84  79  84 VRB6      29.90F HX  96
AUBURN +       SUNNY     84  63  48 W5        29.91F
FORT WAYNE     MOSUNNY   84  65  52 W7        29.91F
HUNTINGTON +   SUNNY     84  64  51 NW5       29.90F

$$

INZ028-029-035-036-043>045-051>053-202300-
WEST CENTRAL INDIANA

CITY           SKY/WX    TMP DP  RH WIND       PRES   REMARKS
GREENCASTLE +  PTSUNNY   77  70  78 CALM      29.93S
LAFAYETTE      MOSUNNY   80  68  66 W10       29.90S
TERRE HAUTE    PTSUNNY   75  68  78 W7        29.93S

$$

INZ030>032-037>040-046>048-054>057-064-065-202300-
CENTRAL INDIANA

CITY           SKY/WX    TMP DP  RH WIND       PRES   REMARKS
CP ATTERBURY + CLOUDY    77  68  73 CALM      29.93F
COLUMBUS       SUNNY     75  70  83 MISG      29.94S
FRANKFORT +    MOSUNNY   81  66  61 W10       29.92F
GREENWOOD *+   CLOUDY    79  70  73 SW3       29.94
INDIANAPOLIS   CLOUDY    79  65  62 SW7       29.92F
-EAGLE CREEK   PTSUNNY   80  64  58 W7        29.92F
KOKOMO *+      SUNNY     84  66  54 W8        29.90F
MARION +       SUNNY     83  65  55 SW5       29.91F
MT COMFORT *+  PTSUNNY   81  59  47 SW3       29.94S
SHELBYVILLE    CLOUDY    80  66  62 SW8       29.93F
ZIONSVILLE +   PTSUNNY   80  64  57 W9        29.93F

$$

INZ033-034-041-042-049-050-058-059-202300-
EAST CENTRAL INDIANA

CITY           SKY/WX    TMP DP  RH WIND       PRES   REMARKS
MUNCIE         MOSUNNY   83  64  52 W13       29.92F

$$

INZ060-061-067>069-081>083-085>088-202300-
SOUTHWEST INDIANA

CITY           SKY/WX    TMP DP  RH WIND       PRES   REMARKS
EVANSVILLE     MOSUNNY   83  67  58 E6        29.97S
WASHINGTON +   PTSUNNY   79  71  76 SW6       29.94R

$$

INZ062-063-066-070>080-084-089>092-202300-
SOUTH CENTRAL AND SOUTHEAST INDIANA

CITY           SKY/WX    TMP DP  RH WIND       PRES   REMARKS
BLOOMINGTON    PTSUNNY   81  68  64 W6        29.93F
SEYMOUR +      CLOUDY    75  59  57 E6        29.94

$$



USA.gov is the U.S. government's official web portal to all federal, state and local government web resources and services.